Simultaneous Nadir Overpasses (SNOs) Predictions

Prediction of SNOs between GOES-16 and METOP-B Satellite Orbit:

Table of predicted SNOs for the next 14.0 days since TLE Epoch: 2/12/2022
Index Date Time (GOES-16) GOES-16 Lat,Lon METOP-B Lat,Lon Distance(km) Time Diff (sec)
1 02/13/2022 02:19:40 -0.01, -75.18 0.51, -72.71 280.34 80
2 02/14/2022 14:41:11 0.02, -75.20 0.50, -77.27 236.52 80
3 02/15/2022 14:17:51 0.02, -75.21 -0.61, -72.28 332.83 80
4 02/17/2022 02:39:32 -0.03, -75.19 -0.41, -76.88 192.77 80
5 02/18/2022 02:16:12 -0.03, -75.19 0.72, -71.89 376.87 80
6 02/19/2022 14:37:44 0.04, -75.23 0.29, -76.45 138.98 80
7 02/20/2022 14:14:24 0.03, -75.24 -0.83, -71.46 431.06 80
8 02/22/2022 02:36:03 -0.04, -75.23 -0.24, -76.05 93.71 80
9 02/23/2022 02:12:44 -0.03, -75.24 0.89, -71.06 476.26 80
10 02/24/2022 14:34:15 0.03, -75.28 0.13, -75.62 39.56 80
